Lake Nacimiento Weather Center

Moon Phase Calendar



Lake Nacimiento Water Level
Online Cameras

 


      

Current Conditions in Lake Nacimiento
10/7/2022 2:33:03 AM

58°F
Feels Like 56
Clouds
Humidity
43%
Pressure
30.03"
Wind
2 mph (N)
Dew Point
36°F
UV Index
0/10 (Low)
Visibility
6 mi

Hourly Forecast

Date & Time Fri, Oct 7
2:00 AM
Fri, Oct 7
3:00 AM
Fri, Oct 7
4:00 AM
Fri, Oct 7
5:00 AM
Fri, Oct 7
6:00 AM
Fri, Oct 7
7:00 AM
Fri, Oct 7
8:00 AM
Fri, Oct 7
9:00 AM
Fri, Oct 7
10:00 AM
Fri, Oct 7
11:00 AM
Fri, Oct 7
12:00 PM
Fri, Oct 7
1:00 PM
Fri, Oct 7
2:00 PM
Fri, Oct 7
3:00 PM
Fri, Oct 7
4:00 PM
Fri, Oct 7
5:00 PM
Fri, Oct 7
6:00 PM
Fri, Oct 7
7:00 PM
Fri, Oct 7
8:00 PM
Fri, Oct 7
9:00 PM
Fri, Oct 7
10:00 PM
Fri, Oct 7
11:00 PM
Sat, Oct 8
12:00 AM
Sat, Oct 8
1:00 AM
Sat, Oct 8
2:00 AM
Sat, Oct 8
3:00 AM
Sat, Oct 8
4:00 AM
Sat, Oct 8
5:00 AM
Sat, Oct 8
6:00 AM
Sat, Oct 8
7:00 AM
Sat, Oct 8
8:00 AM
Sat, Oct 8
9:00 AM
Sat, Oct 8
10:00 AM
Sat, Oct 8
11:00 AM
Sat, Oct 8
12:00 PM
Sat, Oct 8
1:00 PM
Sat, Oct 8
2:00 PM
Sat, Oct 8
3:00 PM
Sat, Oct 8
4:00 PM
Sat, Oct 8
5:00 PM
Sat, Oct 8
6:00 PM
Sat, Oct 8
7:00 PM
Sat, Oct 8
8:00 PM
Sat, Oct 8
9:00 PM
Sat, Oct 8
10:00 PM
Sat, Oct 8
11:00 PM
Sun, Oct 9
12:00 AM
Sun, Oct 9
1:00 AM
Condition
Clouds

Clouds

Clouds

Clouds

Clear

Clear

Clear

Clear

Clear

Clear

Clear

Clear

Clear

Clear

Clear

Clear

Clear

Clear

Clear

Clear

Clear

Clear

Clear

Clear

Clear

Clear

Clear

Clear

Clear

Clear

Clear

Clear

Clear

Clear

Clear

Clear

Clear

Clear

Clear

Clear

Clear

Clear

Clear

Clear

Clear

Clear

Clear

Clear
Temperature 60°F58°F60°F61°F62°F63°F68°F76°F83°F88°F92°F95°F96°F95°F94°F91°F84°F76°F74°F73°F71°F70°F70°F69°F68°F68°F67°F67°F67°F67°F70°F78°F84°F89°F93°F95°F95°F94°F92°F89°F83°F76°F73°F72°F71°F69°F68°F67°F
Feels Like 57°F56°F57°F59°F60°F61°F67°F75°F80°F85°F88°F90°F91°F91°F89°F87°F81°F75°F72°F71°F70°F69°F68°F67°F67°F66°F66°F65°F65°F65°F69°F77°F82°F86°F89°F91°F91°F90°F88°F85°F81°F74°F72°F70°F69°F67°F66°F65°F
Cloudiness 18%17%16%15%9%5%1%1%1%1%0%0%0%1%0%0%0%0%0%0%0%0%0%0%0%0%0%0%0%0%0%0%0%0%0%1%1%1%0%0%0%0%0%0%0%0%0%0%
Visibility 6 mi6 mi6 mi6 mi6 mi6 mi6 mi6 mi6 mi6 mi6 mi6 mi6 mi6 mi6 mi6 mi6 mi6 mi6 mi6 mi6 mi6 mi6 mi6 mi6 mi6 mi6 mi6 mi6 mi6 mi6 mi6 mi6 mi6 mi6 mi6 mi6 mi6 mi6 mi6 mi6 mi6 mi6 mi6 mi6 mi6 mi6 mi6 mi
Precipitation 0%0%0%0%0%0%0%0%0%0%0%0%0%0%0%0%0%0%0%0%0%0%0%0%0%0%0%0%0%0%0%0%0%0%0%0%0%0%0%0%0%0%0%0%0%0%0%0%
Humidity 42%43%44%44%44%45%40%31%25%20%17%15%14%14%14%15%19%24%25%25%28%30%32%33%33%34%34%34%35%35%33%26%22%19%17%16%16%16%16%17%21%26%27%27%29%33%36%36%
Dew Point 37°F36°F38°F39°F40°F42°F42°F42°F42°F41°F40°F38°F37°F36°F35°F35°F36°F35°F34°F34°F35°F37°F37°F37°F37°F37°F37°F37°F37°F37°F39°F39°F40°F41°F40°F40°F39°F39°F38°F37°F38°F37°F36°F35°F36°F37°F38°F38°F
Pressure 30.03"30.03"30.03"30.03"30.06"30.06"30.06"30.06"30.06"30.03"30.03"30"29.97"29.94"29.94"29.94"29.97"29.97"30"30.03"30.03"30.03"30.03"30.03"30.03"30.03"30.03"30.03"30.03"30.03"30.06"30.06"30.03"30.03"30"29.97"29.94"29.94"29.91"29.91"29.94"29.94"29.97"30"30"30"30"30"
Wind Speed 2.2 mph2 mph1.9 mph2.3 mph2.4 mph2.3 mph2.2 mph2.2 mph2.1 mph1.5 mph0.5 mph0.7 mph1.7 mph3.1 mph5.2 mph6.2 mph5.3 mph4.4 mph3.9 mph3.4 mph2.7 mph2.8 mph2.6 mph2.6 mph2.5 mph2.2 mph2.1 mph2.2 mph2.2 mph2.1 mph1.9 mph1.6 mph1.2 mph0.9 mph0.8 mph1.4 mph2.5 mph4.5 mph6.3 mph6.7 mph5.4 mph4 mph3.1 mph2.3 mph0.6 mph0.7 mph1.2 mph1.3 mph
Wind
Direction

N
11°
N

N

N
11°
N
19°
NNE
27°
NNE
28°
NNE
42°
NE
67°
ENE
115°
ESE
241°
WSW
253°
WSW
250°
WSW
249°
WSW
253°
WSW
253°
WSW
270°
W
308°
NW
347°
NNW
356°
N
355°
N
350°
N
355°
N

N

N

N

N

N
15°
NNE
13°
NNE
22°
NNE
41°
NE
92°
E
155°
SSE
218°
SW
237°
WSW
239°
WSW
241°
WSW
245°
WSW
246°
WSW
269°
W
301°
WNW
329°
NNW
341°
NNW
263°
W
268°
W
292°
WNW

Daily Forecast

Date High Low Precip. Humidity
Today
Oct 7

Clear
96 °F
58 °F
0%
17%
Saturday
Oct 8

Clear
95 °F
67 °F
0%
17%
Sunday
Oct 9

Clear
90 °F
61 °F
0%
20%
Monday
Oct 10

Clear
85 °F
59 °F
0%
28%
Tuesday
Oct 11

Clear
86 °F
59 °F
0%
28%
Wednesday
Oct 12

Clear
91 °F
61 °F
0%
20%
Thursday
Oct 13

Clear
93 °F
62 °F
0%
19%
Friday
Oct 14

Clear
94 °F
65 °F
0%
18%
Saturday
Oct 15

Clear
88 °F
58 °F
0%
24%
Sunday
Oct 16

Clouds
82 °F
57 °F
0%
40%
Monday
Oct 17

Clouds
83 °F
55 °F
0%
34%
Tuesday
Oct 18

Rain
89 °F
63 °F
51%
25%
Wednesday
Oct 19

Rain
92 °F
66 °F
20%
22%
Thursday
Oct 20

Clouds
77 °F
59 °F
0%
43%
Friday
Oct 21

Clouds
79 °F
57 °F
0%
53%
Saturday
Oct 22

Clouds
83 °F
56 °F
0%
31%

Temperature 8-14 Day Outlook



Precipitation 8-14 Day Outlook




Quick Links
Lake Nacimiento News
Lake Nacimiento Photos
Lake Nacimiento Videos




About Us
Contact Us
Site Map
Search Site
Advertise With Us
   
Nacimiento.USLakes.info
THE LAKE NACIMIENTO WEBSITE

Copyright 2022, Lakes Online
Privacy    |    Legal